Weather in Taormina

Italy     37°51′18″N   15°17′27″E
temp.,
°C
wind,
m/s
gust,
m/s
humid.,
%
clouds,
%
prec.,
mm/h
press.,
hPa
HPBL,
m
7 may, fri
fri723:00+17nnw2256100 0.0 101615
02:00+17nw2256100 0.0 101519
05:00+18wnw225148 0.0 101416
08:00+20ne114764 0.0 1015124
11:00+21e22465 0.0 1015509
14:00+22ene44506 0.0 1014697
17:00+21nne5867100 1.3 1013230
20:00+17nnw457411 3.3 101376
8 may, sat
sat823:00+17nw34650 0.0 101468
02:00+16wnw33560 0.0 101448
05:00+16wnw33570 0.0 101450
08:00+19nnw23550 0.0 1015216
11:00+22ene24480 0.0 1015737
14:00+24ne46440 0.0 1014776
17:00+23ne78440 0.0 1015571
20:00+17nne46660 0.0 1017101
9 may, sun
sun923:00+16nnw22670 0.0 101829
02:00+16nw22670 0.0 101816
05:00+15nw22670 0.0 101814
08:00+18s12590 0.0 1019178
11:00+20sse46590 0.0 1019434
14:00+19sse46681 0.0 1020395
17:00+18sse246999 0.0 1019276
20:00+16sw2278100 0.0 101930
10 may, mon
mon1023:00+16w117599 0.0 102012
02:00+15wnw1174100 0.0 101912
05:00+15nw11684 0.0 101811
08:00+18e11590 0.0 1018117
11:00+19se33570 0.0 1019326
14:00+19se33620 0.0 1018340
17:00+19se12685 0.0 1018235
20:00+16nne118399 0.0 101726
11 may, tue
tue1123:00+16n2277100 0.0 101717
02:00+16nnw22710 0.0 101621
05:00+16wsw11640 0.0 101511
08:00+18se21615 0.0 1015114
11:00+19se34615 0.0 1016276
14:00+19se347540 0.0 1015309
17:00+18ese12715 0.0 1014235
20:00+16ne11800 0.0 101329